Location: Brno
(49.2000°N, 16.6330°E)
Time: 06:27:42
(UTC+01:00)

Cosmos 2227 - Visible Passes

Search period start: 31 January 2015 00:00
Search period end: 10 February 2015 00:00
Orbit: 835 x 861 km, 71.0° (Epoch: 29 January)

Date Brightness Start Highest point End Pass type
(mag) Time Alt. Az. Time Alt. Az. Time Alt. Az.
31 Jan 4.2 18:30:41 10° NNW 18:36:23 86° WSW 18:42:06 10° SSE visible
31 Jan 6.9 20:16:36 10° WNW 20:19:51 15° W 20:22:51 10° SW visible
01 Feb 4.2 18:17:36 10° NNW 18:23:19 87° WSW 18:29:02 10° SSE visible
01 Feb 6.9 20:03:29 10° WNW 20:06:47 15° W 20:09:51 10° SW visible
02 Feb 4.2 18:04:32 10° NNW 18:10:15 88° WSW 18:15:59 10° SSE visible
02 Feb 7.0 19:50:22 10° WNW 19:53:44 16° W 19:56:52 10° SW visible
03 Feb 4.3 17:51:28 10° NNW 17:57:11 89° WSW 18:02:55 10° SSE visible
03 Feb 7.0 19:37:15 10° WNW 19:40:41 16° W 19:43:52 10° SW visible
04 Feb 4.3 17:38:24 10° NNW 17:44:07 90° W 17:49:51 10° SSE visible
04 Feb 7.1 19:24:09 10° WNW 19:27:38 16° W 19:30:53 10° SW visible
05 Feb 4.3 17:25:20 10° NNW 17:31:03 89° ENE 17:36:47 10° SSE visible
05 Feb 7.1 19:11:03 10° WNW 19:14:34 16° W 19:17:53 10° SW visible
06 Feb 7.4 06:41:09 10° SE 06:44:00 15° E 06:47:07 10° ENE visible
06 Feb 7.2 18:57:56 10° WNW 19:01:31 17° W 19:04:53 10° SW visible
07 Feb 7.4 06:28:10 10° SE 06:30:57 14° E 06:34:01 10° ENE visible
07 Feb 7.2 18:44:50 10° WNW 18:48:28 17° W 18:51:52 10° SW visible
08 Feb 7.5 06:15:10 10° SE 06:17:54 14° E 06:20:54 10° ENE visible
08 Feb 7.3 18:31:44 10° WNW 18:35:24 17° W 18:38:52 10° SW visible
09 Feb 7.6 06:02:11 10° SE 06:04:50 14° E 06:07:47 10° ENE visible
09 Feb 7.4 18:18:37 10° WNW 18:22:21 17° W 18:25:52 10° SW visible
